Simultaneous Nadir Overpasses (SNOs) Predictions

Prediction of SNOs between GOES-14 and NOAA-20 Satellite Orbit:

Table of predicted SNOs for the next 14.0 days since TLE Epoch: 5/21/2022
Index Date Time (GOES-14) GOES-14 Lat,Lon NOAA-20 Lat,Lon Distance(km) Time Diff (sec)
1 05/21/2022 20:42:53 -0.03,-104.63 -0.99,-108.87 483.77 80
2 05/22/2022 20:21:28 -0.05,-104.63 0.04,-104.35 32.86 80
3 05/25/2022 08:24:30 0.04,-104.44 0.15,-105.08 71.93 80
4 05/26/2022 08:08:25 0.05,-104.46 -0.83,-100.54 446.01 80
5 05/27/2022 20:30:22 -0.02,-104.67 -0.28,-105.86 136.25 80
6 05/28/2022 20:08:57 -0.03,-104.67 0.70,-101.33 380.55 80
7 05/30/2022 08:30:44 -0.00,-104.47 0.46,-106.60 242.72 80
8 05/31/2022 08:14:38 0.01,-104.48 -0.52,-102.06 275.00 80
9 06/01/2022 20:36:36 0.02,-104.70 -0.58,-107.38 305.67 80
10 06/02/2022 20:15:10 0.00,-104.70 0.41,-102.85 211.22 80
